TimeMST,TemperatureF,Dew PointF,Humidity,Sea Level PressureIn,VisibilityMPH,Wind Direction,Wind SpeedMPH,Gust SpeedMPH,PrecipitationIn,Events,Conditions,WindDirDegrees,DateUTC
12:53 AM,33.1,14.0,46,29.99,10.0,SE,6.9,-,N/A,,Overcast,140,2013-03-08 07:53:00
1:53 AM,33.1,15.1,48,29.99,10.0,ESE,5.8,-,N/A,,Overcast,110,2013-03-08 08:53:00
2:53 AM,30.9,17.1,57,29.98,10.0,Calm,Calm,-,N/A,,Overcast,0,2013-03-08 09:53:00
3:53 AM,30.9,18.0,59,29.98,10.0,Calm,Calm,-,N/A,,Overcast,0,2013-03-08 10:53:00
4:53 AM,30.9,18.0,59,29.98,10.0,Calm,Calm,-,N/A,,Overcast,0,2013-03-08 11:53:00
5:53 AM,28.9,19.0,67,30.00,10.0,WSW,3.5,-,N/A,,Overcast,240,2013-03-08 12:53:00
6:53 AM,28.9,21.9,75,30.03,10.0,NNW,5.8,-,N/A,,Overcast,340,2013-03-08 13:53:00
7:53 AM,30.0,26.1,85,30.02,10.0,West,3.5,-,N/A,,Overcast,280,2013-03-08 14:53:00
8:53 AM,33.1,27.0,78,29.99,10.0,NNW,4.6,-,N/A,,Overcast,330,2013-03-08 15:53:00
9:53 AM,35.1,25.0,67,29.98,10.0,Calm,Calm,-,N/A,,Overcast,0,2013-03-08 16:53:00
10:53 AM,37.9,25.0,60,29.94,10.0,Variable,3.5,-,N/A,,Overcast,0,2013-03-08 17:53:00
11:53 AM,39.9,23.0,51,29.92,10.0,WSW,3.5,-,N/A,,Scattered Clouds,240,2013-03-08 18:53:00
12:53 PM,44.1,24.1,45,29.88,10.0,NW,10.4,-,N/A,,Overcast,320,2013-03-08 19:53:00
1:53 PM,43.0,24.1,47,29.86,10.0,NW,8.1,-,N/A,,Mostly Cloudy,320,2013-03-08 20:53:00
2:53 PM,46.0,25.0,44,29.85,10.0,NNW,8.1,-,N/A,,Overcast,340,2013-03-08 21:53:00
3:53 PM,44.1,25.0,47,29.86,10.0,WSW,8.1,-,N/A,,Overcast,250,2013-03-08 22:53:00
4:53 PM,43.0,28.0,56,29.86,10.0,SSW,8.1,-,N/A,,Overcast,200,2013-03-08 23:53:00
5:53 PM,41.0,24.1,51,29.89,10.0,WNW,4.6,-,N/A,,Mostly Cloudy,290,2013-03-09 00:53:00
6:53 PM,39.9,24.1,53,29.91,10.0,WSW,6.9,-,N/A,,Overcast,240,2013-03-09 01:53:00
7:53 PM,37.0,24.1,59,29.94,10.0,WSW,9.2,-,N/A,,Overcast,250,2013-03-09 02:53:00
8:53 PM,35.1,24.1,64,29.95,10.0,WSW,9.2,-,N/A,,Mostly Cloudy,250,2013-03-09 03:53:00
9:53 PM,28.9,21.0,72,29.98,10.0,WNW,5.8,-,N/A,,Clear,290,2013-03-09 04:53:00
10:53 PM,27.0,19.9,75,29.97,10.0,WNW,8.1,-,N/A,,Partly Cloudy,300,2013-03-09 05:53:00
11:53 PM,26.1,19.9,78,29.98,10.0,West,5.8,-,N/A,,Clear,280,2013-03-09 06:53:00